Location: Newark
(10.0000°N, 11.0000°W)
Time: 14:15:14
(UTC+00:00)

ISS - Visible Passes

Search period start: 08 December 2019 00:00
Search period end: 18 December 2019 00:00
Orbit: 411 x 421 km, 51.6° (Epoch: 08 December)

Date Brightness Start Highest point End Pass type
(mag) Time Alt. Az. Time Alt. Az. Time Alt. Az.
12 Dec -2.5 19:06:49 10° N 19:09:27 21° NE 19:10:47 17° E visible
13 Dec -1.6 19:54:36 10° WNW 19:57:32 28° SW 20:00:28 10° S visible
14 Dec -3.5 19:05:45 10° NW 19:09:05 72° SW 19:12:26 10° SSE visible
16 Dec -0.3 19:06:42 10° W 19:08:36 14° SW 19:10:30 10° SSW visible
